Карточка аэропорта UIAA

Внимание!
Информация на этой странице в стадии наполнения.
Если вы не увидели какой-то информации, или заметили неточность - пожалуйста сообщите нам!
Спасибо!
Команда RU-STAFF
Название аэропортаКадала
Название аэропорта (англ.)Kadala
Превышение2271 ft. (692.2 m.)
Координаты52°1.5779999999999', 113°18.3'
Высота перехода1800m
Эшелон переходаFL100
Коды ответчика3350-3377
Зона ОрВДИркутск РПИ (UIII)
Данные METARUIAA 140300Z VRB01MPS 9999 NSC 18/11 Q1012 R29/70D NOSIG RMK QFE700/0934
Проноз погоды (TAF)UIAA 140200Z 1403/1503 30003G08MPS 9999 SCT030CB TEMPO 1403/1412 VRB08MPS 3100 -TSRA
NOTAMshow/hide NOTAM
AWOS   TABLE

Информация о ВПП


Диспетчерские позиции

Позывной Наименование органа УВД Частота
UIAA_APPЧита-Подход122.0
UIAA_TWRЧита-Вышка118.2



Спутниковое изображение